Regional Weather Roundup
Issued by NWS

Home | Current Version | Previous Version | Graphics & Text | Print | Product List | Glossary On
Versions: 1 2 3 4 5 6 7 8 9 10 11 12 13 14 15 16 17 18 19 20 21 22 23 24 25 26 27 28 29 30 31 32 33 34 35 36 37 38 39 40 41 42 43 44 45 46 47 48 49 50
000
ASUS43 KDMX 260201
RWRIA

WEATHER ROUNDUP FOR IOWA
NATIONAL WEATHER SERVICE DES MOINES IA
900 PM CDT THU MAY 25 2017

NOTE: "FAIR" INDICATES FEW OR NO CLOUDS BELOW 12,000 FEET WITH NO
SIGNIFICANT WEATHER AND/OR OBSTRUCTIONS TO VISIBILITY.

* - THESE STATIONS ARE NOT NWS STATIONS...THUS NOT UNDER NWS
QUALITY CONTROL.  THEY ALSO DO NOT REPORT WEATHER SUCH
AS PRECIPITATION OR FOG.

IAZ001>003-012>014-020>022-031>034-043>046-260300-
   NORTHWEST IOWA

CITY           SKY/WX    TMP DP  RH WIND       PRES   REMARKS
CARROLL *      CLOUDY    68  54  60 SE7       29.65R
CHEROKEE *     CLOUDY    67  52  59 SE6       29.63R
DENISON *      CLOUDY    66  52  59 SE8       29.65R
LE MARS *      CLOUDY    68  52  56 SE7       29.61S
ORANGE CITY *  CLEAR     66  52  59 SE5       29.62R
SHELDON *      CLEAR     64  52  63 SE10      29.61R
SIOUX CITY     CLOUDY    65  54  67 SE9       29.59R
SPENCER        MOCLDY    62  53  72 SE8       29.64R
STORM LAKE *   CLOUDY    66  52  59 S10       29.65R
$$

IAZ055>058-069>071-079>083-090>094-260300-
   SOUTHWEST IOWA

CITY           SKY/WX    TMP DP  RH WIND       PRES   REMARKS
ATLANTIC *     CLOUDY    68  54  60 S14       29.62R
AUDUBON *      CLOUDY    64  55  72 CALM      29.66R
CLARINDA *     CLOUDY    68  55  64 SE3       29.66R
COUNCIL BLFS * CLOUDY    68  55  64 SE8       29.63R
CRESTON *      CLOUDY    64  54  68 SE8       29.67R
HARLAN  *      CLOUDY    68  54  60 CALM      29.67R
LAMONI         CLOUDY    66  52  60 E7        29.65R
RED OAK *      CLOUDY    70  54  56 SE8       29.64R
SHENANDOAH *   CLOUDY    68  55  64 SE6       29.64R
$$

IAZ047>049-059>061-072>074-084-260300-
   CENTRAL IOWA

CITY           SKY/WX    TMP DP  RH WIND       PRES   REMARKS
AMES           CLOUDY    65  51  60 S12       29.63R
ANKENY *       CLOUDY    66  52  59 SE12      29.63S
BOONE *        MOCLDY    66  54  63 SE13      29.62R
CHARITON *     CLOUDY    64  52  63 S6        29.67R
DES MOINES     CLOUDY    69  50  50 SE13      29.64R
GRINNELL*      CLOUDY    66  49  53 SE13      29.66F
KNOXVILLE *    CLOUDY    66  50  55 SE10      29.64F
MARSHALLTOWN   PTCLDY    66  50  56 SE10      29.63F
NEWTON *       CLOUDY    66  48  52 S12       29.65S
PERRY *          N/A     67  49  52 SE12      29.61R
$$

IAZ004>006-015-016-023>025-035-036-260300-
   NORTH CENTRAL IOWA

CITY           SKY/WX    TMP DP  RH WIND       PRES   REMARKS
ALGONA *       CLOUDY    64  54  68 SE5       29.68R
CLARION *      CLOUDY    64  54  68 NW7       29.69R
ESTHERVILLE    CLOUDY    59  56  89 SE9       29.65R
FORT DODGE *   MOCLDY    64  50  59 CALM      29.68R
MASON CITY     LGT RAIN  62  54  74 N5        29.69R
FOREST CITY *  LGT RAIN  63  45  51 E3        29.67R
WEBSTER CITY * CLOUDY    66  50  55 W12       29.67R
$$

IAZ007>011-017>019-026>030-037>042-050>054-066-260300-
   NORTHEAST IOWA

CITY           SKY/WX    TMP DP  RH WIND       PRES   REMARKS
CEDAR RAPIDS   MOCLDY    64  53  67 CALM      29.70R
CHARLES CITY * CLOUDY    64  52  63 SE7       29.68S
CLINTON *      PTCLDY    61  55  81 E6        29.73R
DUBUQUE        CLEAR     61  53  75 SE5       29.72R
MONTICELLO *   CLEAR     64  55  72 E5        29.70R
OELWEIN *      CLOUDY    64  52  63 SE8       29.70S
WATERLOO       CLOUDY    67  47  48 SE7       29.66S
$$

IAZ064-065-067-068-078-260300-
   EAST CENTRAL IOWA

CITY           SKY/WX    TMP DP  RH WIND       PRES   REMARKS
DAVENPORT      CLEAR     63  53  70 E9        29.71R
IOWA CITY      PTCLDY    67  51  56 CALM      29.71R
MT. PLEASANT * CLEAR     64  51  64 SE5       29.72R
MUSCATINE *    CLEAR     66  52  59 CALM      29.71R
QUAD CITIES    CLEAR     63  54  72 SE7       29.71R
$$

IAZ062-063-075>077-085>089-095>099-260300-
   SOUTHEAST IOWA

CITY           SKY/WX    TMP DP  RH WIND       PRES   REMARKS
BURLINGTON     CLEAR     65  54  67 SE5       29.71R
FAIRFIELD *    MOCLDY    64  52  63 S3        29.72R
FORT MADISON * CLEAR     63  55  77 CALM      29.72R
KEOKUK *       CLEAR     64  52  63 SE3       29.70R
OSKALOOSA *      N/A     67  50  54 SE8       29.69F
OTTUMWA        PTCLDY    64  53  67 SE7       29.69R
WASHINGTON *   CLEAR     64  52  63 S3        29.72R
$$

ABBREVIATIONS USED IN REMARKS
   TC - TEMPERATURES IN CELSIUS
  WCI - WIND CHILL INDEX
   HX - HEAT INDEX
  VSB - VISIBILITY
$$





USA.gov is the U.S. government's official web portal to all federal, state and local government web resources and services.